Spokane, WA
on Thursday, February 28, 2013

Thursday
Previous Day Next Day
Daily Summary
 ActualAverageRecord
Temperature
Mean Temperature °F 36°F  
Max Temperature 40°F 44°F 60°F (1988)
Min Temperature 34°F 28°F -10°F (1890)
Degree Days
Heating Degree Days 28 29  
Month to date heating degree days 869 895  
Since 1 July heating degree days 4537 4829  
Cooling Degree Days 0 0  
Month to date cooling degree days 0 0  
Year to date cooling degree days 0 0  
Moisture
Dew Point 35°F   
Average Humidity 88    
Maximum Humidity 100    
Minimum Humidity 75    
Precipitation
Precipitation 0.15 in 0.05 in 0.70 in (1940)
Month to date precipitation 0.74 1.33  
Year to date precipitation 2.37 3.12  
Snow
Snow 0.00 in 0.20 in 3.30 in (1955)
Month to date snowfall 4.4 6.8  
Since 1 July snowfall 42.6 40.3  
Snow Depth 0.00 in   
Wind
Wind Speed 6 mph   
Max Wind Speed 13 mph   
Max Gust Speed 21 mph   
Visibility 6 miles   
Events Rain   

Key: T is trace of precipitation, MM is missing value
Source: NWS Daily Summary
Time(PST)TemperatureDew PointHumidity Pressure Visibility Wind DirectionWind SpeedGust SpeedPrecipitationEvents Conditions
12:53 AM 35.1°F 28.9°F 78% 30.27 in 10.0 miles ESE 3.5 mph - N/A   Overcast
1:53 AM 35.1°F 28.9°F 78% 30.26 in 10.0 miles SE 3.5 mph - N/A   Overcast
2:53 AM 35.1°F 28.9°F 78% 30.26 in 10.0 miles SSE 4.6 mph - N/A   Overcast
3:53 AM 35.6°F 30.2°F 81% 30.22 in 10.0 miles SSE 5.8 mph - N/A   Overcast
4:53 AM 36.0°F 30.9°F 82% 30.28 in 7.0 miles Calm Calm - 0.00 in Rain Light Rain
5:43 AM 35.6°F 33.8°F 93% 30.24 in 10.0 miles Calm Calm - 0.01 in Rain Light Rain
5:53 AM 35.6°F 33.8°F 93% 30.24 in 7.0 miles Calm Calm - N/A Rain Light Rain
6:20 AM 35.6°F 33.8°F 93% 30.25 in 7.0 miles Calm Calm - 0.03 in Rain Light Rain
6:53 AM 35.1°F 34.0°F 96% 30.31 in 1.0 miles Calm Calm - 0.03 in Rain Light Rain
7:22 AM 35.6°F 33.8°F 93% 30.27 in 2.0 miles SE 3.5 mph - N/A Rain Light Rain
7:53 AM 35.1°F 34.0°F 96% 30.32 in 2.0 miles SE 6.9 mph - 0.01 in Rain Light Rain
8:03 AM 35.6°F 33.8°F 93% 30.27 in 2.0 miles SE 4.6 mph - 0.00 in Rain Light Rain
8:53 AM 36.0°F 34.0°F 93% 30.33 in 2.0 miles SSE 8.1 mph - 0.00 in   Light Drizzle
9:25 AM 35.6°F 33.8°F 93% 30.28 in 10.0 miles SSE 6.9 mph - 0.00 in   Overcast
9:53 AM 37.0°F 35.1°F 93% 30.35 in 10.0 miles SSE 6.9 mph - 0.00 in   Overcast
10:53 AM 37.9°F 35.1°F 89% 30.35 in 10.0 miles SE 5.8 mph - N/A   Overcast
11:53 AM 37.9°F 36.0°F 93% 30.34 in 8.0 miles SE 9.2 mph - 0.00 in Rain Light Rain
12:53 PM 39.0°F 36.0°F 89% 30.32 in 9.0 miles ESE 8.1 mph - 0.00 in Rain Light Rain
1:32 PM 39.2°F 37.4°F 93% 30.27 in 8.0 miles ESE 5.8 mph - 0.01 in Rain Light Rain
1:53 PM 39.2°F 37.4°F 93% 30.27 in 8.0 miles SE 5.8 mph - N/A Rain Light Rain
2:53 PM 39.9°F 37.0°F 89% 30.33 in 8.0 miles SSE 8.1 mph - 0.02 in Rain Light Rain
3:53 PM 39.0°F 37.0°F 93% 30.33 in 7.0 miles SSE 9.2 mph - 0.03 in Rain Light Rain
4:00 PM 39.2°F 37.4°F 93% 30.28 in 7.0 miles SSE 5.8 mph - 0.00 in Rain Light Rain
4:34 PM 39.2°F 35.6°F 87% 30.29 in 7.0 miles SSE 5.8 mph - 0.02 in Rain Light Rain
4:53 PM 39.0°F 36.0°F 89% 30.35 in 7.0 miles SSE 5.8 mph - 0.02 in Rain Light Rain
5:18 PM 39.2°F 37.4°F 93% 30.30 in 10.0 miles SE 5.8 mph - 0.01 in Rain Light Rain
5:53 PM 37.9°F 36.0°F 93% 30.35 in 4.0 miles SSE 8.1 mph - 0.01 in   Overcast
6:34 PM 37.4°F 35.6°F 93% 30.29 in 7.0 miles SSE 10.4 mph - N/A   Overcast
6:53 PM 37.9°F 37.0°F 97% 30.35 in 4.0 miles SSE 9.2 mph - N/A   Overcast
6:58 PM 37.4°F 37.4°F 100% 30.30 in 2.0 miles SSE 10.4 mph - N/A   Overcast
7:53 PM 37.9°F 37.0°F 97% 30.35 in 2.0 miles SE 5.8 mph - N/A   Overcast
8:05 PM 37.4°F 37.4°F 100% 30.30 in 2.0 miles SE 6.9 mph - N/A   Overcast
8:53 PM 37.9°F 37.0°F 97% 30.37 in 2.0 miles SE 5.8 mph - N/A   Overcast
9:26 PM 37.4°F 37.4°F 100% 30.31 in 2.0 miles SE 6.9 mph - N/A   Overcast
9:53 PM 37.9°F 37.0°F 97% 30.37 in 2.0 miles SE 5.8 mph - N/A   Overcast
10:36 PM 37.4°F 37.4°F 100% 30.31 in 2.0 miles SSE 5.8 mph - N/A   Overcast
10:40 PM 37.4°F 37.4°F 100% 30.31 in 0.2 miles SE 4.6 mph - N/A   Overcast
10:53 PM 37.9°F 37.9°F 100% 30.36 in 0.2 miles SE 6.9 mph - N/A   Overcast
11:53 PM 39.0°F 39.0°F 100% 30.37 in 0.2 miles SSE 4.6 mph - N/A   Overcast
Moon Phase
Feb. 28 Mar. 04 Mar. 11 Mar. 19 Mar. 27
Sunrise:06:31 AM (PST) Moon Rise:09:25 PM (PST)2/28
Sunset:05:33 PM (PST) Moon Set:07:27 AM (PST)2/28

Copyright © 2014 The Weather Underground, Inc.